DW0417 Weather Reports


time (UTC)temp
F
wind
direction
speed
knots
gust
knots
rain 1hr
in
rain 24hr
in
rain mn
in
humidity
%
barometer
mb
20260504205536 62 167 4.3 16.5 0.00 0.00 0.00 46 1007.5
20260504204535 65 222 6.1 16.5 0.00 0.00 0.00 37 1007.9
20260504203535 68 231 5.2 11.3 0.00 0.00 0.00 32 1007.7
20260504202533 68 293 9.6 18.2 0.00 0.00 0.00 34 1006.7
20260504201533 67 359 13.0 22.6 0.00 0.00 0.00 33 1006.8
20260504201022 69 347 11.3 19.1 0.00 0.00 0.00 30 1006.9
20260504195533 70 81 13.0 20.9 0.00 0.00 0.00 28 1006.7
20260504194533 71 88 7.0 14.8 0.00 0.00 0.00 24 1006.5
20260504194015 72 91 3.5 7.8 0.00 0.00 0.00 24 1006.5
20260504192533 72 156 2.6 7.0 0.00 0.00 0.00 22 1006.3
20260504192017 71 195 3.5 8.7 0.00 0.00 0.00 21 1006.2
20260504190533 71 156 4.3 9.6 0.00 0.00 0.00 23 1006.2
20260504185533 71 96 4.3 8.7 0.00 0.00 0.00 24 1006.3
20260504184532 71 90 7.0 13.9 0.00 0.00 0.00 25 1006.5
20260504183534 72 176 6.1 12.2 0.00 0.00 0.00 26 1006.7
20260504182533 71 126 6.1 12.2 0.00 0.00 0.00 27 1006.9
20260504181532 70 103 8.7 15.6 0.00 0.00 0.00 27 1006.9
20260504180533 70 97 9.6 17.4 0.00 0.00 0.00 28 1007.2
20260504180011 69 103 10.4 17.4 0.00 0.00 0.00 30 1007.4
20260504174531 69 76 9.6 17.4 0.00 0.00 0.00 29 1007.6
20260504173532 68 86 9.6 18.2 0.00 0.00 0.00 31 1007.7
20260504172529 67 91 7.8 17.4 0.00 0.00 0.00 32 1008.0
20260504171529 66 98 7.8 15.6 0.00 0.00 0.00 32 1008.1
20260504171004 66 139 7.8 17.4 0.00 0.00 0.00 32 1008.2
20260504150528 63 107 2.6 6.1 0.00 0.00 0.00 33 1008.5
20260504110518 43 85 0.0 2.6 0.00 0.00 0.00 63 1008.3
20260504100519 45 309 0.9 2.6 0.00 0.00 0.00 53 1008.6
20260504081514 45 165 0.0 0.0 0.00 0.00 0.00 54 1009.4
20260504080514 46 165 0.0 0.0 0.00 0.00 0.00 55 1009.4
20260504050505 61 167 4.3 11.3 0.00 0.00 0.00 31 1010.2
20260504045505 61 186 2.6 6.1 0.00 0.00 0.00 33 1010.0
20260504044506 62 97 3.5 5.2 0.00 0.00 0.00 31 1009.6
20260504043507 63 110 2.6 5.2 0.00 0.00 0.00 31 1009.6
20260504042506 63 79 3.5 6.1 0.00 0.00 0.00 30 1009.7
20260504041506 63 94 3.5 5.2 0.00 0.00 0.00 30 1009.9
20260504040507 64 77 3.5 7.8 0.00 0.00 0.00 30 1010.0
20260504035507 64 96 4.3 9.6 0.00 0.00 0.00 30 1010.1
20260504034957 65 86 5.2 10.4 0.00 0.00 0.00 30 1010.0
20260504033949 65 72 4.3 8.7 0.00 0.00 0.00 30 1010.1
20260504032947 65 76 4.3 8.7 0.00 0.00 0.00 30 1010.1
20260504031503 65 81 5.2 9.6 0.00 0.00 0.00 29 1010.0
20260504030504 66 73 5.2 10.4 0.00 0.00 0.00 29 1010.0
20260504025503 66 82 5.2 11.3 0.00 0.00 0.00 28 1010.0
20260504024504 66 79 7.8 13.9 0.00 0.00 0.00 27 1010.0
20260504023504 67 75 5.2 13.0 0.00 0.00 0.00 27 1009.9
20260504022503 67 110 4.3 8.7 0.00 0.00 0.00 27 1009.9
20260504021938 67 101 5.2 8.7 0.00 0.00 0.00 27 1009.7
20260504020939 67 91 5.2 11.3 0.00 0.00 0.00 26 1009.7
20260504015458 67 89 6.1 10.4 0.00 0.00 0.00 26 1009.7
20260504014931 67 67 3.5 8.7 0.00 0.00 0.00 25 1009.6
20260504013454 68 78 2.6 5.2 0.00 0.00 0.00 25 1009.5
20260504012453 68 108 3.5 7.8 0.00 0.00 0.00 25 1009.5
20260504011454 69 104 4.3 7.8 0.00 0.00 0.00 24 1009.5
20260504010454 69 124 6.1 11.3 0.00 0.00 0.00 25 1009.5
20260504005453 70 129 7.8 16.5 0.00 0.00 0.00 24 1009.7
20260504004937 70 131 5.2 12.2 0.00 0.00 0.00 25 1010.1
20260504003453 69 111 10.4 18.2 0.00 0.00 0.00 25 1010.2
20260504002453 69 103 5.2 13.9 0.00 0.00 0.00 25 1010.1
20260504001452 69 78 1.7 7.0 0.00 0.00 0.00 27 1010.3
20260504000451 69 347 3.5 6.1 0.00 0.00 0.00 26 1010.3
20260503235451 69 72 6.1 17.4 0.00 0.00 0.00 27 1010.4
20260503234453 69 110 6.1 14.8 0.00 0.00 0.00 27 1010.7
20260503233452 69 120 8.7 15.6 0.00 0.00 0.00 28 1010.7
20260503232451 71 153 6.1 16.5 0.00 0.00 0.00 24 1010.3
20260503231452 72 147 4.3 12.2 0.00 0.00 0.00 23 1010.2
20260503230446 73 335 4.3 9.6 0.00 0.00 0.00 23 1010.4
20260503225446 72 77 6.1 12.2 0.00 0.00 0.00 23 1010.3
20260503224925 73 115 4.3 12.2 0.00 0.00 0.00 23 1010.3
20260503223445 71 274 10.4 20.0 0.00 0.00 0.00 23 1010.6
20260503222446 70 126 7.0 14.8 0.00 0.00 0.00 24 1010.3
20260503221917 72 143 6.1 11.3 0.00 0.00 0.00 24 1010.3
20260503220445 72 115 3.5 7.0 0.00 0.00 0.00 22 1010.4
20260503220407 71 72 4.3 12.2 0.00 0.00 0.00 22 1010.4
20260503214934 70 311 12.2 26.9 0.00 0.00 0.00 24 1011.0
20260503213440 72 94 5.2 12.2 0.00 0.00 0.00 20 1010.7
20260503212912 73 89 7.8 14.8 0.00 0.00 0.00 19 1010.8
20260503211440 74 66 7.0 14.8 0.00 0.00 0.00 18 1010.7
20260503210439 73 110 7.8 14.8 0.00 0.00 0.00 19 1010.9